Regional Weather Roundup
Issued by NWS Huntsville, AL

Home | Current Version | Previous Version | Text Only | Print | Product List | Glossary On
Versions: 1 2 3 4 5 6 7 8 9 10 11 12 13 14 15 16 17 18 19 20 21 22 23 24 25 26 27 28 29 30 31 32 33 34 35 36 37 38 39 40 41 42 43 44 45 46 47 48 49 50
064
ASUS44 KHUN 201610
RWRHUN

WEATHER ROUNDUP FOR THE TENNESSEE VALLEY
NATIONAL WEATHER SERVICE HUNTSVILLE AL
1100 AM CDT WED SEP 20 2017

ALZ001>004-201700-
NORTHWEST ALABAMA

CITY           SKY/WX    TMP DP  RH WIND       PRES   REMARKS
COURTLAND HCN    N/A     79 N/A N/A CALM        N/A
RUSSELLVILLE     N/A     81 N/A N/A MISG        N/A
SHOALS AIRPORT SUNNY     82  71  69 CALM      30.07S
SHOALS TVA RES   N/A     81 N/A N/A MISG        N/A
$$

ALZ005>007-016-201700-
NORTH CENTRAL ALABAMA

CITY           SKY/WX    TMP DP  RH WIND       PRES   REMARKS
CULLMAN AG STN   N/A     77 N/A N/A CALM        N/A
DECATUR AP     SUNNY     81  73  76 NW6       30.07S
HUNTSVILLE AP  MOSUNNY   81  73  76 CALM      30.07S
MERIDIANVILLE  SUNNY     79  70  73 CALM      30.08F
REDSTONE ARSN  SUNNY     80  71  76 CALM      30.06F
VINEMONT AP    FAIR      81  71  71 CALM      30.10S
$$

ALZ008>010-201700-
NORTHEAST ALABAMA

CITY           SKY/WX    TMP DP  RH WIND       PRES   REMARKS
ALBERTVILLE    SUNNY     77  75  94 CALM      30.09S
FORT PAYNE     SUNNY     77  66  69 CALM      30.08F
SCOTTSBORO HCN   N/A     68 N/A N/A MISG        N/A
VALLEY HEAD      N/A     75 N/A N/A MISG        N/A
$$

TNZ076-096-097-201700-
SOUTHEASTERN MIDDLE TENNESSEE

CITY           SKY/WX    TMP DP  RH WIND       PRES   REMARKS
TULLAHOMA      SUNNY     81  66  61 CALM      30.10S
WINCHESTER     SUNNY     81  68  65 W3          N/A
$$

...SURROUNDING SITES...

CITY           SKY/WX    TMP DP  RH WIND       PRES   REMARKS
ATLANTA        MOSUNNY   84  65  52 NW7       30.08S
ANNISTON       SUNNY     80  69  69 CALM      30.08S
BIRMINGHAM     MOSUNNY   83  71  67 NE5       30.09F
CHATTANOOGA    MOSUNNY   76  67  73 N3        30.09F
DALTON         SUNNY     79  70  73 CALM      30.10F
GADSDEN        SUNNY     73  71  93 CALM      30.09F
GOLDEN TRNGL   SUNNY     90  72  55 CALM      30.05R HX  96
HALEYVILLE     FAIR      83  74  74 CALM      30.10S
JACKSON TN     SUNNY     86  74  67 SW7       30.03S HX  94
MEMPHIS        MOSUNNY   86  74  67 SW8       30.01S HX  94
NASHVILLE      MOSUNNY   82  70  66 S5        30.07S
OXFORD MS      FAIR      84  72  65 VRB7      30.04S
ROME           SUNNY     78  72  81 CALM      30.08S
SAVANNAH       SUNNY     84  73  70 W5        30.03F HX  91
SELMER         MOSUNNY   82  73  74 VRB6      30.04S
TUPELO         SUNNY     86  72  62 VRB3      30.04S HX  92
TUSCALOOSA     SUNNY     84  75  74 CALM      30.05F HX  92
$$

...GULF COAST WEATHER...

CITY           SKY/WX    TMP DP  RH WIND       PRES   REMARKS
GULFPORT       PTSUNNY   86  74  67 W8        30.03S HX  94
PASCAGOULA     MOSUNNY   86  73  65 VRB3      30.03S HX  93
MOBILE         PTSUNNY   84  74  71 NW5       30.05S HX  91
GULF SHORES    CLOUDY    85  75  70 W10G18    30.03S HX  94
PENSACOLA      PTSUNNY   86  72  62 CALM      30.03S HX  92
DESTIN         SUNNY     90  72  55 NE3       30.03F HX  97
PANAMA CITY    SUNNY     83  77  80 W6        30.04S HX  92
APPALACHICOLA  PTSUNNY   86  74  67 CALM      30.04R HX  94
$$





USA.gov is the U.S. government's official web portal to all federal, state and local government web resources and services.